Tracking 20083 objects as of 12-Dec-2019
HD Live streaming from Space Station
objects crossing your sky now

ARIANE 5 R/B

Track ARIANE 5 R/B now!


NORAD ID: 36746
Int'l Code: 2010-032C
Perigee: 261.3 km
Apogee: 33,643.9 km
Inclination: 1.9 °
Period: 590.8 minutes
Semi major axis: 23323 km
RCS: 22.3476 m2 (large)
Launch date: June 26, 2010
Source: France (FR)
Launch site: FRENCH GUIANA (FRGUI)

Note: This is a ROCKET BODY
aabbcc
Your satellite tracking list
Your tracking list is empty




NASA's NSSDC Master Catalog

Two Line Element Set (TLE):
1 36746U 10032C   19345.40584105 +.00001039 +00000-0 +35962-3 0  9992
2 36746 001.9362 021.4711 7156386 280.4686 012.0833 02.43729837081983
Source of the keplerian elements: AFSPC